Location: ???????????
(55.5758°N, 38.4970°E)
Time: 17:58:03
(UTC+00:00)

Cosmos 1624 Rocket - Pass Details

Date: 15 November 2025
Orbit: 752 x 779 km, 74.0° (Epoch: 14 December)

Event Time Altitude Azimuth Distance (km) Brightness Sun altitude
Rises 02:54:48 0° 209° (SSW) 3,197 7.0 -17.4°
Reaches altitude 10° 02:57:09 10° 211° (SSW) 2,275 6.2 -17.1°
Maximum altitude 03:02:19 80° 298° (WNW) 772 3.9 -16.3°
Drops below altitude 10° 03:07:32 10° 27° (NNE) 2,293 6.7 -15.6°
Sets 03:09:55 0° 28° (NNE) 3,224 7.5 -15.3°
